Wind_Speed
4 3 3 5 5 5 2 4 2 2 2 3 3 6 9 5 3 2 2 9 5 2 4 11 12 10 9 9 8 5 8 4 6 8 8 9 8 8 8 10 10 16 14 14 14 15 16 18 19
4 5 4 3 5 3 4 4 2 1 3 7 6 3 7 3 2 3 3 8 5 3 2 12 12 11 9 8 10 6 6 3 5 6 8 7 5 4 5 7 15 16 14 14 14 15 16 16 16
5 3 4 4 4 4 4 2 4 2 3 2 4 5 3 2 2 3 6 6 5 1 5 10 12 11 10 9 11 7 6 4 3 4 8 8 6 9 10 14 16 12 11 12 13 14 15 15 14
3 6 4 4 4 2 2 4 2 3 3 6 3 6 3 4 3 5 6 5 5 2 8 8 11 10 9 9 12 11 8 7 2 2 7 8 7 10 12 14 11 9 9 11 11 12 14 14 12
6 3 4 4 2 1 2 1 1 2 3 5 2 2 3 3 3 8 9 7 7 4 8 8 9 9 8 8 10 12 11 10 5 2 6 8 7 9 10 11 8 7 7 8 10 12 13 13 11
4 3 4 3 2 2 3 5 2 3 3 2 5 4 1 2 2 7 10 11 10 8 4 7 7 8 8 8 8 10 11 9 7 4 6 7 9 9 8 10 8 7 7 6 8 11 13 13 11
5 4 5 5 4 3 4 7 4 3 2 5 4 4 2 2 2 4 9 11 11 11 5 5 4 4 6 8 9 10 10 9 8 7 7 8 9 9 8 9 9 8 7 6 7 10 13 14 12
4 4 3 3 3 2 5 3 2 5 3 5 2 5 3 3 4 4 5 8 10 10 10 7 1 3 5 7 9 10 10 10 9 8 9 10 10 11 11 10 11 10 8 7 7 8 12 15 13
3 5 2 2 3 3 5 2 6 3 3 4 5 3 2 8 4 2 2 5 6 7 7 6 8 5 4 7 9 12 11 10 10 10 10 12 13 13 15 13 13 12 11 9 8 8 10 13 14
5 4 4 1 0 2 3 4 4 3 4 5 4 5 7 6 4 5 6 8 8 8 6 5 6 6 7 6 7 13 14 13 13 13 13 14 14 15 16 16 15 15 15 12 10 10 10 12 14
2 4 5 1 1 1 2 3 4 2 1 2 4 2 2 1 2 2 4 6 8 10 10 9 10 10 10 11 10 10 10 14 16 16 16 16 17 16 17 17 18 19 17 16 15 13 14 13 14
6 4 3 4 2 2 3 1 3 1 1 5 1 3 3 3 6 8 10 12 13 14 15 15 15 16 15 15 14 13 11 10 14 18 19 20 20 20 20 21 21 22 21 21 19 17 15 15 15
5 3 3 4 5 4 3 3 4 5 7 5 6 6 8 9 11 13 13 14 14 15 16 16 15 15 16 17 16 16 15 13 13 16 18 22 23 24 23 24 24 25 25 24 23 21 19 18 17
3 6 5 1 3 4 2 2 4 2 4 6 4 3 4 7 9 11 15 17 14 16 18 18 18 16 14 15 16 18 19 19 17 16 16 17 22 27 27 28 29 29 28 27 27 25 24 22 20
4 5 3 4 2 2 1 3 6 2 4 5 7 7 7 9 15 17 18 21 21 23 24 23 20 17 15 15 17 18 19 20 21 21 19 19 18 22 28 32 33 33 33 30 30 28 26 25 23
5 5 3 3 3 3 4 7 4 5 5 8 8 9 9 8 15 21 22 21 22 21 21 19 17 17 16 16 16 18 19 21 22 23 23 23 22 20 21 30 33 34 34 33 34 33 31 29 27
7 2 2 2 7 4 3 6 4 5 7 11 9 8 8 8 12 12 13 13 13 13 13 12 12 14 16 16 18 20 20 21 22 24 26 26 25 25 23 23 29 33 33 30 33 34 33 32 30
4 4 2 1 6 5 3 10 10 7 6 13 11 7 7 6 4 14 14 15 14 14 13 12 13 13 16 19 22 24 25 27 26 26 27 27 29 28 25 26 24 28 31 31 31 30 33 33 32
6 4 3 1 4 4 0 6 17 12 6 8 7 4 5 7 9 14 18 19 20 20 22 21 21 21 22 24 25 28 28 30 30 30 28 27 28 29 29 28 29 25 27 32 31 31 28 32 30
6 4 3 3 4 3 6 13 12 5 2 3 4 3 6 8 9 17 21 22 24 27 30 29 29 29 29 28 30 30 31 32 30 31 30 28 26 26 29 29 31 29 26 26 30 27 22 25 27
5 5 2 0 6 4 8 6 3 3 2 2 2 2 4 6 9 12 21 23 24 24 28 29 30 31 31 30 29 30 31 32 31 34 34 33 30 28 27 27 28 31 27 29 26 30 29 20 21
2 1 2 2 4 2 4 4 5 3 4 2 5 6 7 8 6 8 15 20 23 26 30 29 28 28 29 27 25 26 27 24 25 28 32 32 29 28 26 27 26 28 32 28 29 31 28 30 21
3 1 0 2 4 4 2 3 7 3 4 5 6 7 7 7 7 9 15 18 23 25 29 29 29 29 26 23 24 25 27 28 32 29 29 33 31 28 26 25 26 26 28 31 29 30 30 26 26
2 3 5 4 3 3 3 3 6 4 4 3 5 7 7 9 9 13 19 19 19 21 21 23 24 24 23 24 25 25 27 27 25 26 29 30 32 29 27 25 26 29 25 28 30 31 32 31 29
5 5 3 5 4 5 2 0 9 6 5 4 7 9 8 8 9 9 10 19 26 27 28 25 23 23 22 22 21 25 26 27 28 27 28 28 29 28 26 24 25 28 30 25 27 30 30 31 31
1 5 4 5 2 4 1 6 6 5 6 6 8 9 9 8 8 7 13 18 21 21 20 22 25 25 23 23 23 21 27 24 25 24 23 26 28 27 24 25 25 24 24 26 24 28 28 29 31
2 1 4 0 1 2 3 7 8 4 7 9 8 7 9 8 8 8 15 15 16 18 20 22 24 24 22 20 20 22 23 18 21 22 23 25 24 24 25 25 23 22 22 20 22 26 25 25 25
2 2 2 1 1 4 5 5 6 4 7 7 7 8 9 6 9 8 10 13 17 20 23 25 25 24 24 20 17 18 18 16 18 21 21 21 21 20 20 20 19 17 17 18 20 21 23 24 24
3 2 3 2 3 3 4 6 7 8 7 8 9 8 9 8 8 5 7 15 16 21 23 25 23 24 24 23 17 15 15 15 15 15 16 17 17 17 17 16 17 19 17 15 14 16 14 13 14
4 6 6 3 3 3 2 7 5 9 7 7 10 10 7 8 5 4 8 13 17 21 24 23 23 22 23 23 14 12 13 8 10 13 13 13 13 12 12 13 13 14 15 13 12 14 14 14 16
Wind_Direction
127 154 120 47 70 64 257 256 280 100 59 5 339 116 114 64 51 187 246 350 352 325 185 192 189 185 171 161 140 112 120 89 90 108 109 112 116 123 126 133 134 135 127 123 122 120 118 118 116
101 119 66 85 93 92 258 267 163 73 130 140 76 55 37 72 11 333 336 335 319 278 202 196 190 189 187 172 155 147 126 129 84 125 129 114 94 133 136 133 146 139 131 128 130 128 127 127 123
109 93 83 98 112 162 180 202 168 61 60 204 98 60 94 21 7 329 335 333 334 220 181 183 189 188 190 182 170 158 154 171 96 137 145 126 103 115 119 131 134 141 134 133 134 134 135 135 132
125 28 35 89 159 215 224 160 189 136 28 50 115 58 37 8 331 1 357 11 11 93 169 183 188 190 192 186 177 168 171 181 194 141 157 148 125 131 136 142 141 144 140 135 136 141 144 144 140
58 54 65 82 138 63 69 192 196 97 92 16 16 124 52 11 48 30 35 33 37 55 174 183 186 191 195 194 191 185 181 194 198 185 171 164 142 153 151 156 157 156 150 146 143 152 155 153 149
48 90 71 149 169 73 39 0 55 60 27 66 70 86 303 321 29 47 46 44 42 53 126 165 198 190 193 197 203 198 199 203 206 214 195 182 172 171 170 176 175 171 168 163 153 160 165 164 159
106 82 147 138 141 62 334 322 45 53 13 33 119 86 256 304 87 83 56 50 45 48 78 148 181 202 218 209 205 207 216 213 221 221 215 199 192 193 191 194 190 187 186 184 175 170 175 176 173
100 89 88 13 159 117 324 28 331 49 12 313 116 151 185 210 140 105 67 50 49 49 44 46 128 215 226 240 238 218 217 228 231 231 224 211 202 201 205 213 204 200 199 204 202 185 184 187 186
101 63 96 153 160 147 351 85 351 295 49 40 12 93 351 129 134 94 15 21 27 32 27 25 17 17 286 255 246 252 235 232 237 236 231 221 225 217 210 218 212 212 208 206 216 213 201 199 200
72 85 179 204 93 95 36 73 316 34 16 39 42 43 70 96 76 31 5 348 348 346 342 333 313 323 328 330 305 255 244 245 240 240 237 232 233 226 219 223 222 218 218 216 216 225 224 214 208
89 137 161 48 149 6 62 39 329 46 98 184 148 335 2 47 21 333 305 309 314 317 310 303 301 301 304 300 309 319 286 248 247 245 240 239 236 233 230 228 225 223 222 224 222 219 221 225 218
93 55 129 155 26 27 57 335 335 329 74 141 7 318 315 308 297 291 288 291 296 293 290 288 288 291 294 294 291 291 296 291 271 257 250 243 239 237 234 234 231 228 226 227 228 227 226 229 227
82 124 63 80 62 62 41 30 298 269 269 283 273 270 279 283 281 287 285 288 289 287 295 295 291 289 291 291 290 284 282 281 284 281 277 258 248 243 240 240 236 234 231 231 231 232 232 229 230
102 99 121 78 79 43 43 310 7 280 353 330 1 310 309 297 298 298 295 297 297 297 297 298 291 289 290 294 294 290 288 284 279 275 280 278 269 256 247 244 243 240 236 235 235 235 234 236 236
104 83 82 19 34 68 346 263 234 271 1 329 317 315 320 307 309 298 305 305 302 299 297 289 280 278 281 288 292 291 288 287 284 278 272 274 277 278 266 254 247 246 243 238 237 238 237 240 240
59 51 107 341 24 11 63 270 315 346 359 310 301 304 308 305 308 316 318 316 312 308 303 297 278 271 276 284 293 295 293 288 282 278 275 269 269 272 273 259 255 250 246 240 237 237 236 236 240
18 157 138 101 28 350 50 274 270 3 339 298 295 306 314 309 330 13 16 15 11 8 351 331 311 290 279 279 284 286 288 287 286 279 274 271 269 267 270 270 259 255 249 239 237 236 237 237 239
178 110 55 110 345 10 334 280 291 294 295 288 304 319 323 335 345 342 346 342 337 337 332 325 311 297 292 287 283 282 282 281 283 282 280 274 270 268 269 267 268 254 247 240 237 235 236 237 241
104 94 94 74 10 359 106 279 283 306 275 285 320 44 2 340 315 333 336 335 328 322 319 315 310 298 295 292 292 287 283 285 281 280 282 281 275 268 267 267 265 262 245 241 240 237 231 235 239
59 90 8 284 14 355 349 293 290 306 320 102 110 31 353 333 330 330 333 333 328 320 317 314 309 303 298 290 283 283 282 282 280 279 276 274 274 268 263 262 263 262 259 246 238 235 229 234 232
40 90 46 339 333 43 321 297 328 280 126 125 70 316 298 300 310 323 327 324 322 319 317 312 308 308 304 299 291 284 280 278 274 273 271 266 270 272 266 262 260 260 258 258 252 236 229 229 228
82 47 71 33 45 264 9 274 293 248 263 241 327 333 317 317 305 293 310 315 316 314 317 313 309 304 303 297 287 281 276 271 272 274 276 274 270 271 271 264 261 260 256 255 258 254 241 228 226
177 95 68 89 81 47 326 79 269 272 248 250 301 296 297 290 287 292 296 297 306 312 317 315 309 301 300 294 288 281 273 272 277 275 270 269 268 266 269 265 262 262 260 254 252 256 246 250 232
86 76 44 62 93 16 243 136 277 208 206 253 278 294 295 306 303 291 291 301 307 316 312 310 305 300 293 290 287 283 272 268 267 269 268 265 267 265 264 267 266 262 264 261 254 254 254 250 250
74 52 346 355 12 222 276 27 249 267 232 237 289 292 291 291 289 289 309 339 325 316 314 314 309 301 297 288 279 281 273 275 261 260 260 259 260 262 262 269 272 266 262 263 257 255 256 256 254
112 131 152 215 230 275 333 238 250 227 218 242 260 267 278 285 281 307 313 304 298 302 310 321 321 315 300 293 287 286 282 274 262 262 258 256 258 265 269 270 273 273 267 262 263 257 257 256 257
155 330 181 15 40 296 252 284 293 207 266 259 259 269 277 274 294 284 281 289 308 318 330 330 320 318 314 298 291 286 300 280 276 279 276 267 267 270 272 273 271 271 269 268 264 259 262 262 262
109 233 126 81 285 283 285 278 243 270 256 277 296 273 278 285 265 263 276 307 323 330 331 330 330 323 323 317 298 293 301 293 284 283 281 277 276 274 271 266 265 271 272 272 264 270 259 263 264
142 213 194 201 228 191 307 273 217 212 212 243 262 264 262 254 257 272 309 342 339 349 347 332 330 331 331 328 319 303 295 285 283 287 284 280 281 276 269 267 265 261 272 273 269 261 253 252 259
171 188 180 176 247 237 185 272 227 221 225 231 261 265 258 253 289 312 334 346 352 352 346 338 335 333 334 336 333 326 307 297 293 291 297 298 291 287 276 267 266 263 261 274 266 260 261 264 268
Height
788 789 789 790 822 834 834 821 808 808 807 803 800 804 812 818 819 828 814 814 813 814 815 816 818 819 820 820 821 823 823 824 824 824 824 824 824 824 824 824 824 826 826 826 827 827 827 828 828
788 789 791 805 835 845 836 818 809 808 805 807 806 809 815 823 817 816 815 814 813 813 814 815 817 819 821 821 822 824 824 825 825 825 825 826 825 825 825 825 825 827 827 827 828 828 829 830 830
789 789 799 819 841 837 828 812 811 805 803 803 810 814 818 822 818 818 817 815 814 812 814 815 818 819 820 822 823 825 825 825 826 826 826 827 826 827 827 827 828 829 829 829 829 829 830 831 831
789 792 807 824 824 816 813 812 808 806 805 806 811 821 820 821 820 820 817 816 814 813 814 816 818 819 821 822 823 824 826 826 826 827 827 828 827 828 829 830 830 830 830 831 831 832 832 833 833
790 803 825 829 818 812 812 808 808 809 810 814 811 824 825 822 821 820 818 817 815 815 815 816 818 820 821 822 824 825 826 826 827 827 828 828 829 829 830 831 832 832 832 832 832 832 833 834 834
804 810 831 834 821 814 814 816 809 813 814 813 818 824 827 823 822 821 820 818 817 816 816 818 819 821 821 823 825 825 827 827 827 828 829 829 829 830 831 831 832 833 833 833 833 834 834 835 835
808 820 830 829 824 820 820 817 818 818 817 817 815 827 826 824 823 823 822 821 819 818 818 819 821 822 823 824 824 825 827 828 828 828 829 829 830 830 831 831 832 833 834 834 834 834 835 835 836
809 817 824 834 826 825 822 817 820 819 819 815 815 828 829 823 824 823 823 822 821 821 821 821 822 823 824 825 826 825 826 827 829 828 829 829 830 830 830 831 832 832 833 834 835 835 835 836 836
805 830 838 830 825 826 824 820 822 820 819 819 822 823 823 823 824 825 824 823 823 823 823 823 824 824 824 824 825 825 825 826 827 828 828 829 829 829 830 830 831 832 832 833 834 835 836 836 836
818 837 830 830 830 828 826 825 829 824 824 827 825 824 824 824 825 826 826 825 825 825 825 825 825 825 825 824 824 824 824 824 825 826 827 828 828 828 829 830 830 831 831 832 832 834 836 836 836
819 830 829 830 829 828 827 828 830 827 828 827 829 827 826 826 826 826 826 826 826 825 825 825 824 824 824 823 823 823 822 823 824 824 825 826 826 827 828 828 829 830 830 831 831 831 832 834 834
825 828 827 829 829 828 830 831 831 831 828 827 828 828 827 827 826 826 825 825 825 824 824 824 823 823 823 822 822 822 822 822 822 822 823 822 824 824 825 826 827 827 828 829 829 829 830 831 833
826 829 830 829 830 832 831 834 835 832 827 828 828 828 827 826 826 825 824 824 823 822 822 822 822 821 820 820 820 820 820 820 820 820 821 822 821 821 822 823 824 824 825 826 827 828 828 828 829
826 831 834 833 833 836 835 836 836 828 827 826 826 827 827 827 825 824 823 822 822 821 821 820 819 819 818 818 817 817 817 817 817 817 818 818 818 818 819 819 820 820 821 822 823 824 825 826 827
828 833 834 837 836 838 839 837 837 830 828 827 826 826 826 826 824 822 822 821 820 818 817 815 815 816 815 815 814 814 813 813 813 813 814 815 815 814 815 815 815 816 817 818 819 820 821 823 823
834 840 843 839 838 840 839 845 830 829 830 829 829 828 827 826 826 823 819 817 815 814 812 811 811 812 812 811 811 810 810 809 808 809 809 810 811 811 811 811 811 812 812 812 813 815 816 818 818
855 862 842 841 845 843 844 843 832 832 833 829 828 831 830 825 823 822 820 817 815 813 811 809 809 809 809 808 807 806 805 804 803 803 803 804 805 806 807 807 806 807 808 809 809 809 810 812 812
860 850 843 843 853 848 848 849 838 833 833 828 827 831 830 827 824 822 820 818 815 812 811 809 807 807 806 804 803 801 799 799 798 797 797 798 799 800 801 802 802 802 802 803 804 805 805 806 808
845 846 847 850 854 850 850 857 836 831 833 832 832 833 831 828 824 822 819 816 813 810 808 806 804 803 801 799 797 795 793 791 791 792 792 792 792 793 794 796 797 798 796 797 798 799 800 801 804
850 851 860 856 855 854 859 851 837 834 828 830 834 833 831 829 824 819 817 814 812 809 805 802 800 798 796 794 792 791 788 785 783 784 784 785 786 786 787 789 790 792 793 791 792 794 795 796 798
864 863 862 863 863 862 866 850 837 831 831 832 832 831 830 829 825 819 815 812 809 806 802 798 795 792 790 788 786 783 781 778 775 775 776 778 779 780 780 781 783 785 788 788 788 787 789 791 792
867 861 862 865 886 886 871 879 846 833 831 829 830 831 829 826 823 820 816 810 805 801 797 794 790 787 784 782 779 777 775 772 770 770 769 770 773 774 774 775 776 777 779 781 782 784 783 784 785
865 862 864 870 906 907 878 901 850 838 828 826 828 827 826 824 822 817 812 806 800 797 793 788 785 781 778 775 773 771 768 766 764 763 763 764 765 767 768 769 770 771 772 774 776 778 779 780 779
860 867 877 889 918 919 879 886 858 836 823 826 825 823 822 820 817 813 807 801 796 793 790 785 780 776 773 770 767 765 763 761 758 758 756 757 758 760 761 763 764 765 765 767 769 771 772 773 775
870 887 915 904 913 893 909 890 845 825 825 823 823 821 819 817 816 809 803 796 794 790 786 781 776 771 768 765 761 759 757 755 752 752 751 750 750 752 754 757 758 758 759 761 762 764 765 767 768
875 892 906 899 919 898 885 871 838 824 822 822 820 820 818 816 812 805 802 799 795 790 784 778 772 766 763 759 755 752 752 747 746 747 746 745 745 746 749 750 751 752 754 755 756 758 759 760 762
866 892 870 871 888 883 890 856 829 823 822 819 819 816 815 812 807 805 802 798 792 785 779 774 768 762 757 752 750 748 744 742 742 742 740 740 740 742 743 744 746 747 749 750 751 753 753 755 755
863 866 871 879 912 903 876 879 845 833 818 812 813 813 809 808 806 802 798 793 787 782 776 770 764 758 752 747 744 742 740 739 740 738 737 736 736 736 738 739 741 742 744 745 746 747 747 749 749
866 865 868 875 865 896 873 855 829 818 812 813 812 811 807 805 800 797 792 787 784 780 774 768 762 756 750 745 741 739 737 737 736 735 733 732 732 732 733 735 736 738 739 741 741 743 743 743 743
858 863 864 867 884 862 873 849 804 808 806 809 808 803 799 796 794 791 789 786 782 778 772 768 761 756 750 745 740 738 735 734 733 731 730 730 729 730 731 732 733 734 736 737 738 740 740 739 740